| time (UTC) | temp C | wind direction | speed KPH | gust KPH | rain 1hr cm | rain 24hr cm | rain mn cm | humidity % | barometer mb |
| 20260507085021 | 20 | 0.0 | 0.0 | 0.00 | 0.00 | 0.00 | 68 | 1019.3 | |
| 20260507084019 | 20 | 0.0 | 0.0 | 0.00 | 0.00 | 0.00 | 69 | 1019.1 | |
| 20260507083019 | 19 | 0.0 | 0.0 | 0.00 | 0.00 | 0.00 | 70 | 1019.1 | |
| 20260507082018 | 19 | 0.0 | 0.0 | 0.00 | 0.00 | 0.00 | 70 | 1019.0 | |
| 20260507081019 | 19 | 0.0 | 0.0 | 0.00 | 0.00 | 0.00 | 70 | 1018.9 | |
| 20260507080042 | 20 | 0.0 | 0.0 | 0.00 | 0.00 | 0.00 | 69 | 1018.8 | |
| 20260507075019 | 20 | 0.0 | 0.0 | 0.00 | 0.00 | 0.00 | 69 | 1018.5 | |
| 20260507074042 | 20 | 0.0 | 0.0 | 0.00 | 0.00 | 0.00 | 69 | 1018.4 | |
| 20260507073042 | 20 | 0.0 | 0.0 | 0.00 | 0.00 | 0.00 | 70 | 1018.2 | |
| 20260507072019 | 20 | 0.0 | 0.0 | 0.00 | 0.00 | 0.00 | 70 | 1018.2 | |
| 20260507071020 | 19 | 0.0 | 0.0 | 0.00 | 0.00 | 0.00 | 71 | 1018.2 | |
| 20260507070019 | 19 | 0.0 | 0.0 | 0.00 | 0.00 | 0.00 | 73 | 1018.1 | |
| 20260507065022 | 18 | 0.0 | 0.0 | 0.00 | 0.00 | 0.00 | 73 | 1018.3 | |
| 20260507064040 | 18 | 0.0 | 0.0 | 0.00 | 0.00 | 0.00 | 74 | 1018.4 | |
| 20260507063018 | 18 | 0.0 | 0.0 | 0.00 | 0.00 | 0.00 | 74 | 1018.3 | |
| 20260507062018 | 18 | 0.0 | 0.0 | 0.00 | 0.00 | 0.00 | 75 | 1018.4 | |
| 20260507061019 | 18 | 0.0 | 0.0 | 0.00 | 0.00 | 0.00 | 75 | 1018.2 | |
| 20260507060018 | 18 | 0.0 | 6.4 | 0.00 | 0.00 | 0.00 | 74 | 1018.1 | |
| 20260507055021 | 18 | 0.0 | 0.0 | 0.00 | 0.00 | 0.00 | 75 | 1017.9 | |
| 20260507054018 | 18 | 0.0 | 0.0 | 0.00 | 0.00 | 0.00 | 75 | 1017.9 | |
| 20260507053019 | 18 | 0.0 | 0.0 | 0.00 | 0.00 | 0.00 | 77 | 1017.9 | |
| 20260507052018 | 18 | 0.0 | 0.0 | 0.00 | 0.00 | 0.00 | 79 | 1017.7 | |
| 20260507051042 | 17 | 0.0 | 0.0 | 0.00 | 0.00 | 0.00 | 80 | 1017.7 | |
| 20260507050021 | 17 | 0.0 | 0.0 | 0.00 | 0.00 | 0.00 | 81 | 1017.7 | |
| 20260507045019 | 16 | 0.0 | 0.0 | 0.00 | 0.00 | 0.00 | 82 | 1017.6 | |
| 20260507044022 | 16 | 0.0 | 0.0 | 0.00 | 0.00 | 0.00 | 81 | 1017.6 | |
| 20260507043019 | 15 | 0.0 | 0.0 | 0.00 | 0.00 | 0.00 | 81 | 1017.6 | |
| 20260507042020 | 15 | 0.0 | 0.0 | 0.00 | 0.00 | 0.00 | 81 | 1017.6 | |
| 20260507041041 | 15 | 0.0 | 0.0 | 0.00 | 0.00 | 0.00 | 81 | 1017.5 | |
| 20260507040018 | 15 | 0.0 | 0.0 | 0.00 | 0.00 | 0.00 | 80 | 1017.5 | |
| 20260507035103 | 15 | 0.0 | 0.0 | 0.00 | 0.00 | 0.00 | 79 | 1017.4 | |
| 20260507034018 | 15 | 0.0 | 0.0 | 0.00 | 0.00 | 0.00 | 79 | 1017.3 | |
| 20260507033020 | 15 | 0.0 | 0.0 | 0.00 | 0.00 | 0.00 | 79 | 1017.2 | |
| 20260507032019 | 15 | 0.0 | 0.0 | 0.00 | 0.00 | 0.00 | 79 | 1017.2 | |
| 20260507031040 | 15 | 0.0 | 0.0 | 0.00 | 0.00 | 0.00 | 79 | 1017.2 | |
| 20260507030019 | 15 | 0.0 | 0.0 | 0.00 | 0.00 | 0.00 | 78 | 1017.1 | |
| 20260507025018 | 15 | 0.0 | 0.0 | 0.00 | 0.00 | 0.00 | 79 | 1017.0 | |
| 20260507024019 | 15 | 0.0 | 0.0 | 0.00 | 0.00 | 0.00 | 79 | 1016.9 | |
| 20260507023020 | 15 | 0.0 | 0.0 | 0.00 | 0.00 | 0.00 | 79 | 1016.7 | |
| 20260507022020 | 15 | 0.0 | 0.0 | 0.00 | 0.00 | 0.00 | 79 | 1016.5 | |
| 20260507021019 | 15 | 0.0 | 0.0 | 0.00 | 0.00 | 0.00 | 79 | 1016.7 | |
| 20260507020020 | 15 | 0.0 | 0.0 | 0.00 | 0.00 | 0.00 | 79 | 1016.7 | |
| 20260507015020 | 15 | 0.0 | 0.0 | 0.00 | 0.00 | 0.00 | 78 | 1016.7 | |
| 20260507014018 | 15 | 0.0 | 0.0 | 0.00 | 0.00 | 0.00 | 78 | 1016.6 | |
| 20260507013018 | 15 | 0.0 | 0.0 | 0.00 | 0.00 | 0.00 | 77 | 1016.7 | |
| 20260507012018 | 16 | 0.0 | 0.0 | 0.00 | 0.00 | 0.00 | 76 | 1016.7 | |
| 20260507011021 | 16 | 0.0 | 0.0 | 0.00 | 0.00 | 0.00 | 76 | 1016.7 | |
| 20260507010018 | 16 | 0.0 | 0.0 | 0.00 | 0.00 | 0.00 | 75 | 1016.6 | |
| 20260507005020 | 17 | 0.0 | 0.0 | 0.00 | 0.00 | 0.00 | 75 | 1016.5 | |
| 20260507004018 | 17 | 0.0 | 0.0 | 0.00 | 0.00 | 0.00 | 76 | 1016.3 | |
| 20260507003018 | 17 | 0.0 | 6.4 | 0.00 | 0.00 | 0.00 | 77 | 1016.3 | |
| 20260507002040 | 16 | 0.0 | 0.0 | 0.00 | 0.00 | 0.00 | 78 | 1016.3 | |
| 20260507001018 | 16 | 0.0 | 0.0 | 0.00 | 0.00 | 0.00 | 77 | 1016.3 | |
| 20260507000019 | 16 | 0.0 | 0.0 | 0.00 | 0.00 | 0.00 | 77 | 1016.4 | |
| 20260506235103 | 16 | 0.0 | 0.0 | 0.00 | 0.00 | 0.00 | 77 | 1016.7 | |
| 20260506234018 | 16 | 0.0 | 0.0 | 0.00 | 0.00 | 0.00 | 78 | 1016.8 | |
| 20260506233019 | 16 | 0.0 | 0.0 | 0.00 | 0.00 | 0.00 | 78 | 1016.9 | |
| 20260506232018 | 16 | 0.0 | 0.0 | 0.00 | 0.00 | 0.00 | 76 | 1016.8 | |
| 20260506231017 | 16 | 0.0 | 0.0 | 0.00 | 0.00 | 0.00 | 76 | 1016.8 | |
| 20260506230019 | 16 | 0.0 | 0.0 | 0.00 | 0.00 | 0.00 | 76 | 1016.9 | |
| 20260506225018 | 16 | 0.0 | 0.0 | 0.00 | 0.00 | 0.00 | 77 | 1016.9 | |
| 20260506224019 | 16 | 0.0 | 0.0 | 0.00 | 0.00 | 0.00 | 77 | 1016.9 | |
| 20260506223018 | 16 | 0.0 | 0.0 | 0.00 | 0.00 | 0.00 | 77 | 1016.9 | |
| 20260506222017 | 16 | 0.0 | 0.0 | 0.00 | 0.00 | 0.00 | 77 | 1017.0 | |
| 20260506221017 | 17 | 0.0 | 0.0 | 0.00 | 0.00 | 0.00 | 78 | 1017.0 | |
| 20260506220018 | 17 | 0.0 | 0.0 | 0.00 | 0.00 | 0.00 | 79 | 1016.9 | |
| 20260506215039 | 17 | 0.0 | 0.0 | 0.00 | 0.00 | 0.00 | 79 | 1017.0 | |
| 20260506214019 | 17 | 0.0 | 0.0 | 0.00 | 0.00 | 0.00 | 79 | 1017.0 | |
| 20260506213042 | 17 | 0.0 | 3.2 | 0.00 | 0.00 | 0.00 | 79 | 1017.0 | |
| 20260506212017 | 17 | 0.0 | 0.0 | 0.00 | 0.00 | 0.00 | 79 | 1017.1 | |
| 20260506211017 | 17 | 0.0 | 0.0 | 0.00 | 0.00 | 0.00 | 79 | 1017.1 | |
| 20260506210019 | 17 | 0.0 | 4.8 | 0.00 | 0.00 | 0.00 | 79 | 1017.1 | |
| 20260506205018 | 17 | 225 | 1.6 | 9.7 | 0.00 | 0.00 | 0.00 | 79 | 1017.3 |
| 20260506204018 | 18 | 0.0 | 3.2 | 0.00 | 0.00 | 0.00 | 80 | 1017.1 | |
| 20260506203019 | 18 | 0.0 | 8.0 | 0.00 | 0.00 | 0.00 | 81 | 1016.9 | |
| 20260506202103 | 18 | 0.0 | 0.0 | 0.00 | 0.00 | 0.00 | 81 | 1016.9 | |
| 20260506201041 | 18 | 0.0 | 1.6 | 0.00 | 0.00 | 0.00 | 81 | 1016.7 | |
| 20260506200018 | 18 | 0.0 | 3.2 | 0.00 | 0.00 | 0.00 | 81 | 1016.7 | |
| 20260506195018 | 18 | 225 | 3.2 | 9.7 | 0.00 | 0.00 | 0.00 | 81 | 1016.7 |
| 20260506194018 | 18 | 0.0 | 0.0 | 0.00 | 0.00 | 0.00 | 81 | 1016.5 | |
| 20260506193042 | 18 | 0.0 | 6.4 | 0.00 | 0.00 | 0.00 | 81 | 1016.5 | |
| 20260506192041 | 18 | 0.0 | 4.8 | 0.00 | 0.00 | 0.00 | 80 | 1016.4 | |
| 20260506191018 | 18 | 0.0 | 0.0 | 0.00 | 0.00 | 0.00 | 80 | 1016.4 | |
| 20260506190019 | 18 | 0.0 | 3.2 | 0.00 | 0.00 | 0.00 | 80 | 1016.3 | |
| 20260506185018 | 18 | 0.0 | 0.0 | 0.00 | 0.00 | 0.00 | 80 | 1016.3 | |
| 20260506184041 | 18 | 0.0 | 0.0 | 0.00 | 0.00 | 0.00 | 80 | 1016.2 | |
| 20260506183018 | 18 | 0.0 | 0.0 | 0.00 | 0.00 | 0.00 | 80 | 1016.3 | |
| 20260506182018 | 18 | 0.0 | 0.0 | 0.00 | 0.00 | 0.00 | 79 | 1016.1 | |
| 20260506181041 | 19 | 0.0 | 0.0 | 0.00 | 0.00 | 0.00 | 78 | 1016.0 | |
| 20260506180018 | 19 | 0.0 | 0.0 | 0.00 | 0.00 | 0.00 | 78 | 1016.0 | |
| 20260506175018 | 19 | 0.0 | 0.0 | 0.00 | 0.00 | 0.00 | 77 | 1015.8 | |
| 20260506174020 | 19 | 0.0 | 6.4 | 0.00 | 0.00 | 0.00 | 76 | 1015.6 | |
| 20260506173018 | 19 | 0.0 | 4.8 | 0.00 | 0.00 | 0.00 | 75 | 1015.5 | |
| 20260506172020 | 20 | 225 | 1.6 | 8.0 | 0.00 | 0.00 | 0.00 | 73 | 1015.6 |
| 20260506171041 | 20 | 0.0 | 0.0 | 0.00 | 0.00 | 0.00 | 71 | 1015.3 | |
| 20260506170018 | 20 | 0.0 | 1.6 | 0.00 | 0.00 | 0.00 | 70 | 1015.4 | |
| 20260506165041 | 21 | 0.0 | 0.0 | 0.00 | 0.00 | 0.00 | 72 | 1015.3 | |
| 20260506164018 | 20 | 0.0 | 0.0 | 0.00 | 0.00 | 0.00 | 72 | 1015.3 | |
| 20260506163018 | 20 | 0.0 | 6.4 | 0.00 | 0.00 | 0.00 | 73 | 1015.4 | |
| 20260506162019 | 21 | 225 | 4.8 | 14.5 | 0.00 | 0.00 | 0.00 | 69 | 1015.5 |
| 20260506161019 | 21 | 225 | 1.6 | 8.0 | 0.00 | 0.00 | 0.00 | 68 | 1015.5 |
| 20260506160018 | 21 | 225 | 1.6 | 8.0 | 0.00 | 0.00 | 0.00 | 67 | 1015.5 |
| 20260506155019 | 21 | 225 | 1.6 | 9.7 | 0.00 | 0.00 | 0.00 | 67 | 1015.4 |
| 20260506154018 | 21 | 225 | 1.6 | 11.3 | 0.00 | 0.00 | 0.00 | 66 | 1015.5 |
| 20260506153020 | 21 | 0.0 | 1.6 | 0.00 | 0.00 | 0.00 | 67 | 1015.6 | |
| 20260506152018 | 21 | 225 | 8.0 | 14.5 | 0.00 | 0.00 | 0.00 | 65 | 1015.6 |
| 20260506151018 | 22 | 225 | 6.4 | 17.7 | 0.00 | 0.00 | 0.00 | 62 | 1015.7 |
| 20260506150021 | 22 | 225 | 1.6 | 8.0 | 0.00 | 0.00 | 0.00 | 63 | 1015.6 |
| 20260506145018 | 22 | 225 | 1.6 | 12.9 | 0.00 | 0.00 | 0.00 | 62 | 1015.5 |
| 20260506144018 | 22 | 225 | 4.8 | 16.1 | 0.00 | 0.00 | 0.00 | 62 | 1015.5 |
| 20260506143040 | 22 | 225 | 1.6 | 9.7 | 0.00 | 0.00 | 0.00 | 63 | 1015.6 |
| 20260506142039 | 22 | 225 | 4.8 | 14.5 | 0.00 | 0.00 | 0.00 | 63 | 1015.7 |
| 20260506141017 | 22 | 225 | 9.7 | 16.1 | 0.00 | 0.00 | 0.00 | 61 | 1015.7 |
| 20260506140018 | 23 | 203 | 6.4 | 17.7 | 0.00 | 0.00 | 0.00 | 59 | 1015.7 |
| 20260506135019 | 23 | 203 | 4.8 | 11.3 | 0.00 | 0.00 | 0.00 | 55 | 1015.6 |
| 20260506134017 | 23 | 203 | 3.2 | 12.9 | 0.00 | 0.00 | 0.00 | 55 | 1015.4 |
| 20260506133039 | 23 | 203 | 4.8 | 14.5 | 0.00 | 0.00 | 0.00 | 53 | 1015.6 |
| 20260506132018 | 23 | 203 | 3.2 | 16.1 | 0.00 | 0.00 | 0.00 | 55 | 1015.8 |
| 20260506131019 | 23 | 203 | 4.8 | 14.5 | 0.00 | 0.00 | 0.00 | 56 | 1016.0 |
| 20260506130019 | 23 | 203 | 3.2 | 11.3 | 0.00 | 0.00 | 0.00 | 56 | 1016.0 |
| 20260506125123 | 23 | 203 | 3.2 | 12.9 | 0.00 | 0.00 | 0.00 | 54 | 1016.1 |
| 20260506124018 | 24 | 180 | 3.2 | 12.9 | 0.00 | 0.00 | 0.00 | 52 | 1016.3 |
| 20260506123040 | 24 | 180 | 1.6 | 6.4 | 0.00 | 0.00 | 0.00 | 52 | 1016.4 |
| 20260506122019 | 24 | 180 | 3.2 | 11.3 | 0.00 | 0.00 | 0.00 | 49 | 1016.5 |
| 20260506121017 | 24 | 180 | 3.2 | 11.3 | 0.00 | 0.00 | 0.00 | 51 | 1016.6 |
| 20260506120018 | 24 | 180 | 1.6 | 6.4 | 0.00 | 0.00 | 0.00 | 50 | 1016.7 |
| 20260506115017 | 25 | 180 | 1.6 | 3.2 | 0.00 | 0.00 | 0.00 | 47 | 1016.6 |
| 20260506114017 | 24 | 0.0 | 8.0 | 0.00 | 0.00 | 0.00 | 46 | 1016.7 | |
| 20260506113017 | 25 | 0.0 | 3.2 | 0.00 | 0.00 | 0.00 | 45 | 1016.7 | |
| 20260506112019 | 24 | 0.0 | 1.6 | 0.00 | 0.00 | 0.00 | 46 | 1016.8 | |
| 20260506111019 | 23 | 0.0 | 3.2 | 0.00 | 0.00 | 0.00 | 48 | 1016.9 | |
| 20260506110018 | 23 | 180 | 1.6 | 9.7 | 0.00 | 0.00 | 0.00 | 47 | 1017.0 |
| 20260506105019 | 23 | 180 | 8.0 | 16.1 | 0.00 | 0.00 | 0.00 | 43 | 1017.0 |
| 20260506104020 | 23 | 180 | 1.6 | 11.3 | 0.00 | 0.00 | 0.00 | 43 | 1017.0 |
| 20260506103019 | 23 | 180 | 3.2 | 9.7 | 0.00 | 0.00 | 0.00 | 39 | 1017.0 |
| 20260506102019 | 23 | 180 | 1.6 | 6.4 | 0.00 | 0.00 | 0.00 | 38 | 1016.9 |
| 20260506101019 | 23 | 0.0 | 3.2 | 0.00 | 0.00 | 0.00 | 43 | 1017.0 | |
| 20260506100019 | 23 | 180 | 1.6 | 8.0 | 0.00 | 0.00 | 0.00 | 46 | 1017.1 |
| 20260506095020 | 23 | 180 | 4.8 | 11.3 | 0.00 | 0.00 | 0.00 | 45 | 1017.2 |
| 20260506094019 | 24 | 180 | 3.2 | 11.3 | 0.00 | 0.00 | 0.00 | 41 | 1017.2 |
| 20260506093020 | 24 | 0.0 | 3.2 | 0.00 | 0.00 | 0.00 | 39 | 1017.2 | |
| 20260506092020 | 23 | 0.0 | 1.6 | 0.00 | 0.00 | 0.00 | 40 | 1017.4 | |
| 20260506091022 | 23 | 0.0 | 6.4 | 0.00 | 0.00 | 0.00 | 45 | 1017.2 | |
| 20260506090019 | 22 | 0.0 | 3.2 | 0.00 | 0.00 | 0.00 | 48 | 1017.3 |